Location: Morlupo
(42.1333°N, 12.5000°E)
Time: 16:07:20
(UTC+00:00)

ATLAS 2AS CENTAUR R/B - Pass Details

Date: 18 September 2020
Orbit: 939 x 1273 km, 63.7° (Epoch: 19 October)

Event Time Altitude Azimuth Distance (km) Brightness Sun altitude
Rises 19:10:50 0° 185° (S) 4,158 5.6 -21.9°
Reaches altitude 10° 19:13:47 10° 177° (S) 3,222 4.9 -22.4°
Enters shadow 19:16:57 24° 162° (SSE) 2,348 4.1 -22.9°
Exits shadow 19:24:45 25° 64° (ENE) 2,338 4.1 -24.2°
Drops below altitude 10° 19:28:04 10° 48° (NE) 3,256 5.0 -24.8°
Sets 19:31:02 0° 41° (NE) 4,207 5.7 -25.3°
